Terug naar catalogus

SL-12 R/B(2)

ActiefGEO
NORAD 19347·ROCKET BODY·🇷🇺 Russia

Gelanceerd Aug 1, 1988 vanaf Baikonur Cosmodrome

Loading…

TLE

VersSource: Space-Track

Epoch: Aug 28, 2026, 02:32 UTC

1 19347U 88066D   26240.10567634 -.00000223  00000-0  00000+0 0  9995
2 19347  12.1018 331.4157 0031778 147.1619 227.5524  0.98659621136674

Volg SL-12 R/B(2) in realtime met AllMySat

Download on the App Store